Flag for Angola Weather past 2 weeks in Luanda, Angola

Now
72 °F

Partly sunny.


Feels Like: 71 °F
Forecast: 70 / 77 °F
Wind: 7 mph from Southeast

Location: Luanda Airport

Current Time: Sep 30, 2014 at 7:52:19 AM

Latest Report: Sep 30, 2014 at 7:00 AM


Visibility: N/A

Pressure: 29.98 "Hg

Humidity: 83%

Dew point: 66 °F

Location of LuandaLocation

Historic Weather in Luanda — Graph

°F

Luanda temperature yesterday

Maximum temperature yesterday: 81 °F (at 11:00 AM)
Minimum temperature yesterday: 70 °F (at 3:00 AM)
Average temperature yesterday: 75 °F

Past Weeks' High & Low Weather Summary

 TemperatureHumidityPressure
High84 °F (Sep 19, 12:00 PM)94% (Sep 17, 5:00 AM)30.18 "Hg (Sep 17, 5:00 AM)
Low61 °F (Sep 17, 6:00 AM)51% (Sep 19, 12:00 PM)29.86 "Hg (Sep 19, 3:00 PM)
Average73 °F79%29.96 "Hg
* Reported Sep 15 6:00 AM — Sep 30 6:00 AM, Luanda, Weather by CustomWeather, © 2014

Note: Actual official high and low records may vary slightly from our data, if they occured in-between our weather recording intervals... More about our weather records

Advertising

Luanda weather history for previous 24 hours

 ConditionsComfort  
Time TempWeatherWind HumidityBarometerVisibility
6:00 AM
Sep 30
70 °FPartly sunny.8 mph88%29.98 "HgN/A
5:00 AM70 °FPassing clouds.7 mph88%29.95 "HgN/A
4:00 AM70 °FPassing clouds.7 mph94%29.95 "HgN/A
3:00 AM70 °FPassing clouds.7 mph94%29.95 "HgN/A
1:00 AM72 °FPassing clouds.8 mph88%29.95 "HgN/A
12:00 AM72 °FPassing clouds.6 mph88%29.98 "HgN/A
11:00 PM
Sep 29
72 °FPassing clouds.7 mph88%29.98 "HgN/A
10:00 PM72 °FClear.9 mph88%29.98 "Hg10 mi
9:00 PM72 °FClear.9 mph88%29.98 "Hg10 mi
8:00 PM75 °FClear.7 mph74%29.95 "Hg10 mi
6:00 PM75 °FSunny.9 mph74%29.89 "Hg10 mi
5:00 PM79 °FSunny.12 mph61%29.89 "Hg10 mi
4:00 PM79 °FSunny.12 mph65%29.89 "Hg10 mi
3:00 PM81 °FPassing clouds.12 mph62%29.89 "HgN/A
2:00 PM81 °FScattered clouds.9 mph62%29.95 "HgN/A
1:00 PM81 °FPartly sunny.9 mph66%29.95 "HgN/A
12:00 PM79 °FBroken clouds.7 mph65%29.98 "HgN/A
11:00 AM81 °FBroken clouds.2 mph62%30.01 "HgN/A
10:00 AM79 °FBroken clouds.7 mph65%30.04 "HgN/A
9:00 AM77 °FPartly sunny.3 mph79%30.01 "HgN/A
8:00 AM73 °FBroken clouds.8 mph83%30.04 "HgN/A
7:00 AM72 °FPartly sunny.6 mph88%30.01 "HgN/A
Weather by CustomWeather, © 2014

See weather overviewHow to use our weather pages